This is the latest recevied weather packets stored in our database for station/object TA3HRJ-12. If no packets are shown the sender has not sent any weather packets the latest 10 day(s).
| Time | Temp. | Humidity | Pressure | Rain* | Wind** | Luminosity | Snow |
|---|---|---|---|---|---|---|---|
| 1777793099 | 17.22° C | 34% | 1021.5 hPa | - | - | - | - |
| 1777792199 | 17.78° C | 34% | 1021.6 hPa | - | - | - | - |
| 1777791299 | 17.78° C | 33% | 1021.7 hPa | - | - | - | - |
| 1777790398 | 18.33° C | 34% | 1021.5 hPa | - | - | - | - |
| 1777789498 | 17.78° C | 34% | 1021.5 hPa | - | - | - | - |
| 1777788598 | 16.11° C | 38% | 1021.5 hPa | - | - | - | - |
| 1777787698 | 14.44° C | 40% | 1021.7 hPa | - | - | - | - |
| 1777786798 | 13.33° C | 41% | 1021.8 hPa | - | - | - | - |
| 1777785898 | 12.78° C | 43% | 1021.8 hPa | - | - | - | - |
| 1777784998 | 12.78° C | 43% | 1021.7 hPa | - | - | - | - |
| 1777784098 | 13.33° C | 42% | 1021.7 hPa | - | - | - | - |
| 1777783198 | 12.78° C | 42% | 1021.8 hPa | - | - | - | - |
| 1777782297 | 12.78° C | 42% | 1021.7 hPa | - | - | - | - |
| 1777781398 | 12.22° C | 43% | 1021.8 hPa | - | - | - | - |
| 1777780497 | 12.78° C | 43% | 1021.6 hPa | - | - | - | - |
| 1777779597 | 11.67° C | 43% | 1021.9 hPa | - | - | - | - |
| 1777778697 | 12.78° C | 42% | 1021.8 hPa | - | - | - | - |
| 1777777797 | 12.22° C | 44% | 1021.9 hPa | - | - | - | - |
| 1777776897 | 12.78° C | 42% | 1021.9 hPa | - | - | - | - |
| 1777775997 | 11.11° C | 45% | 1021.9 hPa | - | - | - | - |
| 1777775097 | 12.22° C | 44% | 1021.9 hPa | - | - | - | - |
| 1777774197 | 12.78° C | 43% | 1021.8 hPa | - | - | - | - |
| 1777773297 | 12.78° C | 43% | 1021.9 hPa | - | - | - | - |
| 1777772396 | 12.78° C | 43% | 1022 hPa | - | - | - | - |
| 1777771496 | 13.33° C | 42% | 1021.9 hPa | - | - | - | - |
* Rain since midnight (hover to see other rain measurements)
** Current wind speed in m/s (hover to see current wind gust speed)